Regional Weather Roundup
Issued by NWS

Home | Current Version | Previous Version | Graphics & Text | Print | Product List | Glossary On
Versions: 1 2 3 4 5 6 7 8 9 10 11 12 13 14 15 16 17 18 19 20 21 22 23 24 25 26 27 28 29 30 31 32 33 34 35 36 37 38 39 40 41 42 43 44 45 46 47 48 49 50
429
ASUS43 KIND 280709
RWRIN

WEATHER ROUNDUP FOR INDIANA
NATIONAL WEATHER SERVICE INDIANAPOLIS IN
300 AM EDT TUE MAR 28 2017

NOTE: "FAIR" INDICATES FEW OR NO CLOUDS BELOW 12,000 FEET WITH NO
SIGNIFICANT WEATHER AND/OR OBSTRUCTIONS TO VISIBILITY.

* - STATION DOES NOT REPORT WEATHER SUCH AS PRECIPITATION OR FOG.

+ - STATION NOT QUALITY CONTROLLED BY THE NATIONAL WEATHER SERVICE.
    USE DATA WITH CAUTION...ESPECIALLY DEWPOINT AND RELATIVE
    HUMIDITY OBSERVATIONS.

INZ001>003-010>013-019-020-280800-
NORTHWEST INDIANA

CITY           SKY/WX    TMP DP  RH WIND       PRES   REMARKS
GARY /AIRPORT/ CLEAR     40  37  90 N9        29.98F
KNOX *+        CLOUDY    41  28  60 N13       29.93S
LA PORTE +     CLOUDY    38  37  94 N13       29.96R
MICHIGAN CITY+ PTCLDY    36  36 100 N5        29.98S
MONTICELLO +   CLOUDY    47  45  92 N10       29.91R
RENSSELAER +   CLOUDY    43  39  87 N14       29.94R
VALPARAISO     PTCLDY    39  37  92 N9G17     29.96R

$$

LMZ046-743>745-280800-
SOUTHERN LAKE MICHIGAN

STATION/POSITION TIME  TEMP    WIND        PRES    WAVE
                       AIR SEA DIR/SP/G            HT
                 (UTC) (F)     (DEG/KT/KT) (MB)    (FT)
BURNS HARBOR     0701   38     340/ 11/ 14 1015.6R
MICHIGAN CITY    0640   38     330/ 11/ 12   N/A

$$

INZ004-005-014>016-021>024-280800-
NORTH CENTRAL INDIANA

CITY           SKY/WX    TMP DP  RH WIND       PRES   REMARKS
GOSHEN         CLOUDY    48  43  82 N12       29.90S
LOGANSPORT +   CLOUDY    48  46  93 N8        29.90R FOG
PERU/GRISSOM   CLOUDY    51  51 100 N10       29.87S
ROCHESTER +    MOCLDY    50  48  93 N5        29.90S
SOUTH BEND     CLOUDY    39  37  92 N10       29.94S
WARSAW +       CLOUDY    46  45  93 N9        29.89F

$$

INZ006>009-017-018-025>027-280800-
NORTHEAST INDIANA

CITY           SKY/WX    TMP DP  RH WIND       PRES   REMARKS
ANGOLA *+      CLOUDY    48  48 100 N6        29.89S
AUBURN +       CLOUDY    50  46  87 N7        29.88S
FORT WAYNE     LGT RAIN  53  49  86 NE7       29.87S
HUNTINGTON +   DRIZZLE   51  50  97 N5        29.87F
KENDALLVILLE + CLOUDY    49  47  95 N9        29.89S

$$

INZ028-029-035-036-043>045-051>053-280800-
WEST CENTRAL INDIANA

CITY           SKY/WX    TMP DP  RH WIND       PRES   REMARKS
CRAWFORDSVL +  CLOUDY    50  50 100 N9        29.88R FOG
GREENCASTLE +  CLOUDY    54  52  94 N9        29.86S
LAFAYETTE      CLOUDY    48  47  96 N8        29.90R
TERRE HAUTE    CLOUDY    55  52  89 N10       29.86S

$$

INZ030>032-037>040-046>048-054>057-064-065-280800-
CENTRAL INDIANA

CITY           SKY/WX    TMP DP  RH WIND       PRES   REMARKS
CP ATTERBURY + CLOUDY    55  54  94 N6        29.83F
FISHERS *+     CLOUDY    52  52 100 CALM      29.85
FRANKFORT +    CLOUDY    54  53  94 N10       29.89S FOG
GREENWOOD *+   CLOUDY    55  55  99 N9        29.84F
INDIANAPOLIS   CLOUDY    55  53  93 N12       29.84F
-EAGLE CREEK   CLOUDY    55  52  89 N7        29.84F
KOKOMO +       CLOUDY    53  51  93 N10       29.88S
MARION +       CLOUDY    52  51  95 N8        29.88S
MT COMFORT *+  CLOUDY    54  52  94 N12       29.85S
SHELBYVILLE    CLOUDY    56  53  90 N8        29.83S
ZIONSVILLE +   DRIZZLE   52  51  97 NE10      29.86F

$$

INZ033-034-041-042-049-050-058-059-280800-
EAST CENTRAL INDIANA

CITY           SKY/WX    TMP DP  RH WIND       PRES   REMARKS
MUNCIE         LGT RAIN  55  52  89 NE10      29.85S FOG
RICHMOND +     LGT RAIN  54  54 100 W3        29.84S

$$

INZ060-061-067>069-081>083-085>088-280800-
SOUTHWEST INDIANA

CITY           SKY/WX    TMP DP  RH WIND       PRES   REMARKS
EVANSVILLE     CLOUDY    56  52  86 W6        29.87R
HUNTINGBURG *+ CLOUDY    54  54 100 SW3       29.86R FOG
WASHINGTON +   CLOUDY    56  54  94 MISG      29.84S

$$

INZ062-063-066-070>080-084-089>092-280800-
SOUTH CENTRAL AND SOUTHEAST INDIANA

CITY           SKY/WX    TMP DP  RH WIND       PRES   REMARKS
BEDFORD +      CLOUDY    54  52  94 S5        29.83F FOG
BLOOMINGTON    CLOUDY    56  53  90 NW3       29.84R
MADISON *+     CLOUDY    55  54  94 CALM      29.86S
NORTH VERNON + RAIN     N/A N/A N/A SW5       29.84F
SEYMOUR +      CLOUDY    57  55  94 CALM      29.82F

$$





USA.gov is the U.S. government's official web portal to all federal, state and local government web resources and services.